Powrót do katalogu

FENGYUN 1C DEB

AktywnyPO
NORAD 46450·DEBRIS·🇨🇳 China

Wystrzelony May 10, 1999 z Taiyuan Satellite Launch Center

Loading…

Następne Przeloty (najbliższe 24 godziny)

TLE

ŚwieżeSource: Space-Track

Epoka: Sep 13, 2026, 11:52 UTC

1 46450U 99025EZF 26256.49450696  .00001793  00000-0  97563-3 0  9991
2 46450  98.0648  88.0635 0180222 355.8730   4.0945 14.05394818649769

Śledź FENGYUN 1C DEB w czasie rzeczywistym z AllMySat

Download on the App Store